Погода в Ливенке

Россия / Белгородская область     50°26′50″N   38°17′46″E
темп.,
°C
ветер,
м/с
пор.,
м/с
влажн.,
%
обл.,
%
осадки,
мм/ч
давл.,
гПа
погр.,
м
1 июля, пт
пт100:00+15с227375 0.0 101619
03:00+14ссз338022 0.0 101645
06:00+15сз36825 0.0 1015149
09:00+20сз57680 0.0 1014588
12:00+22с79540 0.0 10141924
15:00+19с6116549 0.0 1014505
18:00+19ссв710610 0.2 1014986
21:00+14ссв613600 0.2 1017485
2 июля, сб
сб200:00+10с310750 0.0 1019250
03:00+8с410790 0.0 1020317
06:00+8с511820 0.0 1020355
09:00+15с711640 0.0 1020834
12:00+19с811597 0.0 10191583
15:00+21с810540 0.0 10181990
18:00+20с610620 0.0 10181205
21:00+15ссз411780 0.0 1019208
3 июля, вс
вс300:00+13ссз411850 0.0 1019189
03:00+13сз412810 0.0 1018211
06:00+14сз613770 0.0 1018268
09:00+18ссз51068100 0.0 1018410
12:00+23ссз68557 0.0 1017960
15:00+25сз695333 0.0 10161713
18:00+23ссз596834 0.4 1015548
21:00+19сз5128782 0.6 1016221
4 июля, пн
пн400:00+17ссз499286 0.0 1016141
03:00+17сз369291 0.0 1016102
06:00+17ссз38901 0.0 1016207
09:00+22ссв46710 0.0 1016577
12:00+25св45580 0.0 10171299
15:00+26св465218 0.0 10162068
18:00+24в45634 0.0 1017483
21:00+19в34761 0.0 101850
5 июля, вт
вт500:00+16вюв22780 0.0 101917
03:00+16ю22741 0.0 101911
06:00+17ю11744 0.0 102016
09:00+22ююв22575 0.0 1020394
12:00+25ююв22465 0.0 10201237
15:00+26юз21445 0.0 10191674
18:00+26ю015191 0.0 10191253
21:00+21юв226177 0.0 101812